This demonstration page uses our WeatherBlox Daily Observations layout. Learn more.

41.55636, -103.73856

Hourly Observations for May 2, 2017

Temp ( °F °C ) Dew Point ( °F °C ) Humidity (%) Winds ( mph kmh ) Pressure ( in mb ) Visibility ( mi km ) Precip ( " mm )
12:53 am 00:53 Cloudy 40 4.4 32 0 73 73 WNW 3 6 30.01 1016 10 16.0934 0 0
1:53 am 01:53 Cloudy 41 5 33 0.6 73 73 NW 5 7 30.01 1016 10 16.0934 0 0
2:53 am 02:53 Cloudy 41 5 35 1.7 79 79 NNW 6 9 29.99 1016 10 16.0934 0 0
3:53 am 03:53 Cloudy 42 5.6 34 1.1 73 73 Calm 29.98 1015 10 16.0934 0 0
4:53 am 04:53 Cloudy 41 5 35 1.7 79 79 NW 3 6 29.98 1015 10 16.0934 0 0
5:53 am 05:53 Cloudy 42 5.6 35 1.7 76 76 Calm 29.99 1016 10 16.0934 0 0
6:53 am 06:53 Cloudy with Light Rain 43 6.1 36 2.2 76 76 Calm 30 1016 10 16.0934 0 0.0254
7:53 am 07:53 Cloudy 45 7.2 36 2.2 71 71 S 6 9 30 1016 10 16.0934 0 0.0254
8:53 am 08:53 Cloudy 48 8.9 33 0.6 56 56 Calm 30 1016 10 16.0934 0 0.0254
9:53 am 09:53 Cloudy 49 9.4 34 1.1 56 56 Calm 30 1016 10 16.0934 0 0
10:53 am 10:53 Mostly Cloudy 52 11.1 36 2.2 55 55 VRB 6 9 29.98 1015 10 16.0934 0 0
11:53 am 11:53 Mostly Cloudy 55 12.8 38 3.3 53 53 SSE 8 13 29.95 1014 10 16.0934 0 0
12:50 pm 12:50 Cloudy with Rain 50 10 43 6 76 76 VRB 3 6 29.91 1013 1.75 2.816345 0 0
12:53 pm 12:53 Cloudy with Rain 50 10 41 5 71 71 Calm 29.97 1015 2 3.21868 0.05 1.27
1:03 pm 13:03 Cloudy with Light Rain 50 10 43 6 76 76 ENE 6 9 29.91 1013 8 12.87472 0 0
1:53 pm 13:53 Cloudy 52 11.1 44 6.7 75 75 ESE 9 15 29.95 1014 10 16.0934 0.03 0.762
2:53 pm 14:53 Mostly Cloudy 54 12.2 42 5.6 64 64 VRB 5 7 29.94 1014 10 16.0934 0 0
3:53 pm 15:53 Cloudy 53 11.7 44 6.7 72 72 SE 12 19 29.94 1014 10 16.0934 0.01 0.254
4:53 pm 16:53 Mostly Cloudy 53 11.7 45 7.2 74 74 E 10 17 29.95 1014 10 16.0934 0 0.0254
5:01 pm 17:01 Mostly Cloudy 53 11.7 45 7.2 74 74 E 12 19 29.88 1012 10 16.0934 0 0
5:31 pm 17:31 Mostly Sunny 54 12.2 43 6.1 67 67 ESE 10 17 29.88 1012 10 16.0934 0 0
5:53 pm 17:53 Sunny 54 12.2 44 6.7 69 69 SE 10 17 29.95 1014 10 16.0934 0 0
6:53 pm 18:53 Cloudy with Light Rain 50 10 46 7.8 86 86 ESE 12 19 29.98 1015 9 14.48406 0.02 0.508
7:53 pm 19:53 Partly Cloudy 48 8.9 44 6.7 86 86 SE 6 9 30 1016 10 16.0934 0 0.0254
8:53 pm 20:53 Partly Cloudy 46 7.8 44 6.7 93 93 E 6 9 30.03 1017 10 16.0934 0 0
9:53 pm 21:53 Clear 44 6.7 41 5 89 89 E 5 7 30.04 1017 9 14.48406 0 0
10:53 pm 22:53 Mostly Cloudy with Mist and Fog 42 5.6 40 4.4 92 92 N 5 7 30.06 1018 5 8.0467 0 0
11:53 pm 23:53 Clear 40 4.4 38 3.3 93 93 NW 7 11 30.06 1018 9 14.48406 0 0

Powered by AerisWeather